Погода в Новонукутском

Россия / Иркутская область     53°41′56″N   102°42′10″E
темп.,
°C
ветер,
м/с
пор.,
м/с
влажн.,
%
обл.,
%
осадки,
мм/ч
давл.,
гПа
погр.,
м
4 марта, чт
чт423:00−23с238697 0.0 102820
02:00−27с228656 0.0 103120
05:00−29ссз11910 0.0 103319
08:00−31св11940 0.0 103719
11:00−23в11870 0.0 1036145
14:00−20в218519 0.0 1035233
17:00−19вюв23873 0.0 1034177
20:00−24вюв11852 0.0 103720
5 марта, пт
пт523:00−24в22830 0.0 103720
02:00−24в22880 0.0 103721
05:00−24вюв33930 0.0 103534
08:00−23вюв34906 0.0 103459
11:00−16юв598996 0.0 1030386
14:00−11юв6108781 0.0 1026476
17:00−9юв51088100 0.0 1023463
20:00−12вюв489081 0.0 1024138
6 марта, сб
сб623:00−15юв389167 0.0 1024170
02:00−14юв239483 0.0 1025134
05:00−15юв1193100 0.0 102620
08:00−16ю129591 0.0 102920
11:00−10ююв239091 0.0 1027157
14:00−5ююв348982 0.0 1025322
17:00−4вюв349244 0.0 1022191
20:00−8юв229359 0.0 102321
7 марта, вс
вс723:00−10юв22920 0.0 102222
02:00−11в119241 0.0 102221
05:00−11вюв1188100 0.0 102021
08:00−11вюв1282100 0.0 102121
11:00−6вюв128178 0.0 1019155
14:00−2вюв128585 0.0 1018256
17:00−2всв129252 0.0 101789
20:00−7св119128 0.0 102021
8 марта, пн
пн823:00−6ююв119094 0.0 102221
02:00−6с128997 0.0 102321
05:00−10вюв119125 0.0 102321
08:00−10вюв129243 0.0 102421
11:00−4юв249277 0.0 1021253
14:00−1ююв349783 0.0 1019388
17:00−1юв2394100 0.0 1017293
20:00−6вюв229375 0.0 101821